Regional Weather Roundup
Issued by NWS

Home | Current Version | Previous Version | Graphics & Text | Print | Product List | Glossary On
Versions: 1 2 3 4 5 6 7 8 9 10 11 12 13 14 15 16 17 18 19 20 21 22 23 24 25 26 27 28 29 30 31 32 33 34 35 36 37 38 39 40 41 42 43 44 45 46 47 48 49 50
000
ASUS43 KMKX 210111
RWRWI

WISCONSIN REGIONAL WEATHER ROUNDUP
NATIONAL WEATHER SERVICE MILWAUKEE/SULLIVAN WI
700 PM CST MON FEB 20 2017

NOTE: "FAIR" INDICATES FEW OR NO CLOUDS BELOW 12,000 FEET WITH NO
SIGNIFICANT WEATHER AND/OR OBSTRUCTIONS TO VISIBILITY.

WIZ001-002-006>008-014>016-023>028-210200-
NORTHWEST WISCONSIN

CITY           SKY/WX    TMP DP  RH WIND       PRES   REMARKS
SUPERIOR ARPT  LGT RAIN  37  37 100 CALM      29.61F
ASHLAND        CLOUDY    50  48  93 S12       29.65F
HAYWARD        LGT RAIN  50  47  89 S8        29.67F
SIREN          DRIZZLE   49  48  97 S10       29.65R
CUMBERLAND     RAIN      45  45 100 S8        29.69S
RICE LAKE      RAIN      48  47  97 CALM      29.71F
CHETEK         LGT RAIN  49  49  99 S6        29.72S
LADYSMITH      DRIZZLE   48  47  97 SW8       29.75R
EAU CLAIRE     LGT RAIN  52  51  97 S10       29.74R FOG
MENOMONIE      RAIN      51  51 100 S12       29.72S
NEW RICHMOND   CLOUDY    50  50 100 S9        29.69R
OSCEOLA        CLOUDY    51  51 100 S10       29.71R
$$

WIZ003>005-009-010-017-018-210200-
NORTH CENTRAL WISCONSIN

CITY           SKY/WX    TMP DP  RH WIND       PRES   REMARKS
MANITOWISH WTR LGT RAIN  44  44 100 S12       29.71F
ARBOR VITAE    RAIN      47  46  95 S14G20    29.74S
WOODRUFF       RAIN      47  46  95 S14G20    29.74S
RHINELANDER    LGT RAIN  47  46  97 S9G21     29.76F FOG
EAGLE RIVER    RAIN      43  43  99 S9        29.76S
LAND O LAKES   RAIN      45  44  97 S10       29.77F
PHILLIPS       HVY RAIN  47  47 100 S13G18    29.71S
TOMAHAWK       RAIN      44  43  96 S3        29.76F
MEDFORD        LGT RAIN  45  45  99 S15       29.75S VSB<1/4
MERRILL        NOT AVBL
$$

WIZ029-030-035-036-043>047-210200-
CENTRAL WISCONSIN

CITY           SKY/WX    TMP DP  RH WIND       PRES   REMARKS
WAUSAU         RAIN      47  46  97 S15       29.77S FOG
MOSINEE        RAIN      46  46 100 S15G23    29.79F
MARSHFIELD     RAIN      51  50  96 S17       29.76S FOG
STEVENS POINT  LGT RAIN  47  47 100 S9        29.81F
WAUPACA        DRIZZLE   50  48  92 SE7       29.84F
WAUTOMA        LGT RAIN  51  49  92 SE10      29.84F FOG
WISC RAPIDS    RAIN      53  53 100 S7        29.81R FOG
CAMP DOUGLAS   RAIN      55  55 100 S9        29.80S FOG
$$

WIZ011>013-019>022-031-037>040-048>050-210200-
NORTHEAST WISCONSIN

CITY           SKY/WX    TMP DP  RH WIND       PRES   REMARKS
ANTIGO         LGT RAIN  41  41 100 S20G26    29.81F
SHAWANO        LGT RAIN  49  46  89 S13G21    29.86F
OCONTO         CLOUDY    44  39  81 S12       29.89F
STURGEON BAY   CLOUDY    49  36  61 SE20G29   29.92F
GREEN BAY      RAIN      49  45  86 SE22      29.89F
MANITOWOC      LGT RAIN  46  36  68 MISG      29.94S
APPLETON       LGT RAIN  46  43  87 SE15      29.87F FOG
CLINTONVILLE   RAIN      46  45  93 SE14G21   29.84F
OSHKOSH        CLOUDY    51  45  79 SE16      29.85F
$$

WIZ032>034-041-042-053>061-210200-
SOUTHWEST WISCONSIN

CITY           SKY/WX    TMP DP  RH WIND       PRES   REMARKS
LA CROSSE      LGT RAIN  55  53  93 S8        29.79R FOG
SPARTA         LGT RAIN  55  55  97 S12G21    29.80R
VIROQUA        CLOUDY    55  55  99 SW13      29.82R
BOSCOBEL       RAIN      60  57  89 S14G22    29.83S FOG
PRAIRIE DU CHI DRIZZLE   55  54  96 S6        29.83R
PLATTEVILLE    CLOUDY    55  55 100 S9        29.87S
$$

WIZ056-057-062-063-064-067-068-210200-
SOUTH CENTRAL WISCONSIN

CITY           SKY/WX    TMP DP  RH WIND       PRES   REMARKS
REEDSBURG      DRIZZLE   56  56 100 S9        29.83S
BARABOO/DELLS  DRIZZLE   55  52  90 S13       29.82S
LONE ROCK      LGT RAIN  57  54  89 S13       29.84S FOG
MINERAL POINT  RAIN      55  55 100 S9        29.86R
MADISON        LGT RAIN  57  53  86 S8        29.85F
MIDDLETON      CLOUDY    58  54  86 S5        29.85F
WATERTOWN      CLOUDY    53  49  86 SE8       29.87F
MONROE         CLOUDY    61  52  72 S16       29.85S
JANESVILLE     CLOUDY    63  52  67 S15G24    29.87F
$$

WIZ051-052-058>065-066-070>072-210200-
SOUTHEAST WISCONSIN

CITY           SKY/WX    TMP DP  RH WIND       PRES   REMARKS
MILWAUKEE      CLOUDY    59  41  51 S20G30    29.93F
WAUKESHA       MOCLDY    55  43  62 SE17G25   29.93S
MILWAUKEE/TIMM MOCLDY    57  37  47 S20G29    29.92F
RACINE         CLOUDY    51  38  60 S18G26    29.95F
KENOSHA        CLOUDY    58  44  60 SE21      29.93F
FOND DU LAC    LGT RAIN  53  45  74 SE14      29.87F
SHEBOYGAN      CLOUDY    50  40  68 S15       29.94R
WEST BEND      LGT RAIN  54  43  66 SE8       29.92R
JUNEAU         CLOUDY    52  46  82 SE9       29.88F
$$

LSZ147-162-210200-
LAKE SUPERIOR

STATION/POSITION TIME  TEMP    WIND        PRES    WAVE
                       AIR SEA DIR/SP/G            HT/PER
                 (UTC) (F)     (DEG/KT/KT) (MB)    (FT/S)
DEVILS ISLAND    0100   45     210/  8/ 12 1003.9F
PORT WING        0040   36     310/  3/  7 1004.4F
SAXON HARBOR     0040   51     200/  8/ 16 1003.7S
$$

LMZ867-665-643>646-210200-
LAKE MICHIGAN

STATION/POSITION TIME  TEMP    WIND        PRES    WAVE
                       AIR SEA DIR/SP/G            HT/PER
                 (UTC) (F)     (DEG/KT/KT) (MB)    (FT/S)
CHAMBERS ISLAND  0040   48     120/ 12/ 20 1012.2F
NORTHPORT PIER   0040   39     150/ 13/ 17 1013.5F
SISTER BAY       0020   45     160/ 18/ 23   N/A
KEWAUNEE LAKESHO 0048   42     180/  9/ 12 1013.7F
SHEBOYGAN LAKESH 0100   44     150/ 20/ 21 1013.5F
PORT WASHINGTON  0040   43     210/  6/  9 1014.9F
MILWAUKEE LAKESH 0050   44     150/ 17/ 19   N/A
KENOSHA   LAKESH 0100   41     180/ 13/ 18 1013.9
$$

TC  - TEMPERATURE IN CELSIUS
VSB - VISIBILITY IN STATUTE MILES
WCI - WIND CHILL INDEX
HX  - HEAT INDEX





USA.gov is the U.S. government's official web portal to all federal, state and local government web resources and services.